Location: Dos Palmas
(32.4468°N, 116.8732°W)
Time: 00:47:46
(UTC+00:00)

Resurs 1-4 Rocket - Pass Details

Date: 20 June 2021
Orbit: 800 x 813 km, 98.6° (Epoch: 27 July)

Event Time Altitude Azimuth Distance (km) Brightness Sun altitude
Rises 08:03:32 0° 35° (NE) 3,337 6.1 -34.0°
Reaches altitude 10° 08:06:48 10° 56° (NE) 2,402 5.0 -34.0°
Enters shadow 08:08:41 15° 76° (ENE) 2,068 4.4 -33.9°
